Time,TemperatureF,DewpointF,PressureIn,WindDirection,WindDirectionDegrees,WindSpeedMPH,WindSpeedGustMPH,Humidity,HourlyPrecipIn,Conditions,Clouds,dailyrainin,SolarRadiationWatts/m^2,SoftwareType,DateUTC
2013-06-12 00:02:00,78.3,53.3,29.65,East,90,6.2,8.1,42,0.00,CLR,SCT,0.00,0.0,WeatherDisplay:10.37,2013-06-12 05:02:00,
2013-06-12 00:07:00,78.3,53.3,29.65,ESE,112,4.9,7.4,42,0.00,CLR,SCT,0.00,0.0,WeatherDisplay:10.37,2013-06-12 05:07:00,
2013-06-12 00:12:00,78.1,53.1,29.65,ENE,68,4.9,7.8,42,0.00,CLR,SCT,0.00,0.0,WeatherDisplay:10.37,2013-06-12 05:12:00,
2013-06-12 00:17:00,77.9,53.0,29.65,ESE,112,4.7,5.8,42,0.00,CLR,SCT,0.00,0.0,WeatherDisplay:10.37,2013-06-12 05:17:00,
2013-06-12 00:22:00,77.9,53.6,29.65,ENE,68,4.9,6.0,43,0.00,CLR,SCT,0.00,0.0,WeatherDisplay:10.37,2013-06-12 05:22:00,
2013-06-12 00:31:00,77.5,53.3,29.65,ESE,112,4.0,6.0,43,0.00,CLR,SCT,0.00,0.0,WeatherDisplay:10.37,2013-06-12 05:31:00,
2013-06-12 00:36:00,77.5,53.9,29.68,ESE,112,6.2,10.4,44,0.00,CLR,SCT,0.00,0.0,WeatherDisplay:10.37,2013-06-12 05:36:00,
2013-06-12 00:41:00,77.5,53.9,29.68,ESE,112,4.7,6.9,44,0.00,CLR,SCT,0.00,0.0,WeatherDisplay:10.37,2013-06-12 05:41:00,
2013-06-12 00:46:00,77.5,53.9,29.68,SSE,158,4.0,6.2,44,0.00,CLR,SCT,0.00,0.0,WeatherDisplay:10.37,2013-06-12 05:46:00,
2013-06-12 00:51:00,77.5,53.9,29.65,ESE,112,4.5,5.8,44,0.00,CLR,SCT,0.00,0.0,WeatherDisplay:10.37,2013-06-12 05:51:00,
2013-06-12 00:56:00,77.5,53.9,29.65,ESE,112,4.7,7.6,44,0.00,CLR,SCT,0.00,0.0,WeatherDisplay:10.37,2013-06-12 05:56:00,
2013-06-12 01:01:00,77.5,53.9,29.65,ESE,112,4.9,6.9,44,0.00,CLR,SCT,0.00,0.0,WeatherDisplay:10.37,2013-06-12 06:01:00,
2013-06-12 01:06:00,77.4,53.7,29.65,ESE,112,6.9,10.7,44,0.00,CLR,SCT,0.00,0.0,WeatherDisplay:10.37,2013-06-12 06:06:00,
2013-06-12 01:25:00,77.0,54.0,29.62,ENE,68,4.5,10.4,45,0.00,CLR,SCT,0.00,0.0,WeatherDisplay:10.37,2013-06-12 06:25:00,
2013-06-12 01:30:00,77.0,54.6,29.62,ENE,68,4.7,6.9,46,0.00,CLR,SCT,0.00,0.0,WeatherDisplay:10.37,2013-06-12 06:30:00,
2013-06-12 01:50:00,76.8,55.1,29.62,WSW,248,4.0,9.2,47,0.00,CLR,SCT,0.00,0.0,WeatherDisplay:10.37,2013-06-12 06:50:00,
2013-06-12 01:55:00,76.8,55.1,29.62,SSE,158,4.3,5.8,47,0.00,CLR,SCT,0.00,0.0,WeatherDisplay:10.37,2013-06-12 06:55:00,
2013-06-12 02:00:00,76.8,55.1,29.62,SSW,202,3.8,9.2,47,0.00,CLR,SCT,0.00,0.0,WeatherDisplay:10.37,2013-06-12 07:00:00,
2013-06-12 02:07:00,76.8,55.6,29.71,NNW,338,4.5,5.8,48,0.00,CLR,SCT,0.00,0.0,WeatherDisplay:10.37,2013-06-12 07:07:00,
2013-06-12 02:12:00,76.8,55.6,29.71,ESE,112,4.0,4.9,48,0.00,CLR,SCT,0.00,0.0,WeatherDisplay:10.37,2013-06-12 07:12:00,
2013-06-12 02:17:00,76.5,55.9,29.71,NNW,338,3.1,3.5,49,0.00,CLR,SCT,0.00,0.0,WeatherDisplay:10.37,2013-06-12 07:17:00,
2013-06-12 02:22:00,76.3,55.7,29.68,NW,315,0.9,2.3,49,0.00,CLR,SCT,0.00,0.0,WeatherDisplay:10.37,2013-06-12 07:22:00,
2013-06-12 02:27:00,76.1,55.5,29.68,SSE,158,1.1,3.8,49,0.00,CLR,SCT,0.00,0.0,WeatherDisplay:10.37,2013-06-12 07:27:00,
2013-06-12 02:32:00,75.9,55.9,29.68,WNW,292,3.1,3.5,50,0.00,CLR,SCT,0.00,0.0,WeatherDisplay:10.37,2013-06-12 07:32:00,
2013-06-12 02:37:00,75.7,56.3,29.71,SSE,158,2.6,5.6,51,0.00,CLR,SCT,0.00,0.0,WeatherDisplay:10.37,2013-06-12 07:37:00,
2013-06-12 02:43:00,75.6,56.7,29.71,WNW,292,2.4,3.5,52,0.00,CLR,SCT,0.00,0.0,WeatherDisplay:10.37,2013-06-12 07:43:00,
2013-06-12 02:48:00,75.4,56.5,29.71,ESE,112,2.6,4.6,52,0.00,CLR,SCT,0.00,0.0,WeatherDisplay:10.37,2013-06-12 07:48:00,
2013-06-12 02:53:00,75.4,56.5,29.65,ENE,68,0.0,2.3,52,0.00,CLR,SCT,0.00,0.0,WeatherDisplay:10.37,2013-06-12 07:53:00,
2013-06-12 02:58:00,75.2,55.8,29.65,ESE,112,1.1,1.1,51,0.00,CLR,SCT,0.00,0.0,WeatherDisplay:10.37,2013-06-12 07:58:00,
2013-06-12 03:03:00,75.2,56.4,29.65,NE,45,0.9,1.1,52,0.00,CLR,SCT,0.00,0.0,WeatherDisplay:10.37,2013-06-12 08:03:00,
2013-06-12 03:08:00,75.0,56.2,29.68,SSE,158,2.9,3.5,52,0.00,CLR,SCT,0.00,0.0,WeatherDisplay:10.37,2013-06-12 08:08:00,
2013-06-12 03:13:00,74.8,57.1,29.68,SSW,202,1.6,2.9,54,0.00,CLR,SCT,0.00,0.0,WeatherDisplay:10.37,2013-06-12 08:13:00,
2013-06-12 03:18:00,74.7,56.9,29.68,ESE,112,0.0,0.0,54,0.00,CLR,SCT,0.00,0.0,WeatherDisplay:10.37,2013-06-12 08:18:00,
2013-06-12 03:23:00,74.7,57.4,29.68,NNE,22,0.0,0.0,55,0.00,CLR,SCT,0.00,0.0,WeatherDisplay:10.37,2013-06-12 08:23:00,
2013-06-12 03:28:00,74.7,57.4,29.68,North,0,0.0,0.0,55,0.00,CLR,SCT,0.00,0.0,WeatherDisplay:10.37,2013-06-12 08:28:00,
2013-06-12 03:33:00,74.5,56.7,29.68,East,90,1.1,2.3,54,0.00,CLR,SCT,0.00,0.0,WeatherDisplay:10.37,2013-06-12 08:33:00,
2013-06-12 03:38:00,74.3,56.6,29.68,East,90,1.6,2.3,54,0.00,CLR,SCT,0.00,0.0,WeatherDisplay:10.37,2013-06-12 08:38:00,
2013-06-12 03:44:00,74.1,56.4,29.68,East,90,2.2,2.4,54,0.00,CLR,SCT,0.00,0.0,WeatherDisplay:10.37,2013-06-12 08:44:00,
2013-06-12 03:49:00,73.9,56.2,29.68,ESE,112,0.0,0.0,54,0.00,CLR,SCT,0.00,0.0,WeatherDisplay:10.37,2013-06-12 08:49:00,
2013-06-12 03:54:00,73.8,57.1,29.68,SSE,158,2.6,3.5,56,0.00,CLR,SCT,0.00,0.0,WeatherDisplay:10.37,2013-06-12 08:54:00,
2013-06-12 03:59:00,73.6,57.4,29.68,ESE,112,2.0,2.4,57,0.00,CLR,SCT,0.00,0.0,WeatherDisplay:10.37,2013-06-12 08:59:00,
2013-06-12 04:04:00,73.6,57.9,29.65,ESE,112,2.0,2.3,58,0.00,CLR,SCT,0.00,0.0,WeatherDisplay:10.37,2013-06-12 09:04:00,
2013-06-12 04:09:00,73.8,58.1,29.65,East,90,2.0,3.5,58,0.00,CLR,SCT,0.00,0.0,WeatherDisplay:10.37,2013-06-12 09:09:00,
2013-06-12 04:14:00,73.9,58.2,29.65,East,90,2.2,3.5,58,0.00,CLR,SCT,0.00,0.0,WeatherDisplay:10.37,2013-06-12 09:14:00,
2013-06-12 04:20:00,73.9,58.2,29.65,SSE,158,2.6,3.5,58,0.00,CLR,SCT,0.00,0.0,WeatherDisplay:10.37,2013-06-12 09:20:00,
2013-06-12 04:25:00,73.9,58.2,29.65,ESE,112,2.0,2.4,58,0.00,CLR,SCT,0.00,0.0,WeatherDisplay:10.37,2013-06-12 09:25:00,
2013-06-12 04:30:00,74.3,58.6,29.65,ENE,68,2.6,3.5,58,0.00,CLR,SCT,0.00,0.0,WeatherDisplay:10.37,2013-06-12 09:30:00,
2013-06-12 04:35:00,74.3,58.6,29.65,ESE,112,2.0,2.3,58,0.00,CLR,SCT,0.00,0.0,WeatherDisplay:10.37,2013-06-12 09:35:00,
2013-06-12 04:40:00,74.3,58.6,29.65,ESE,112,2.0,2.6,58,0.00,CLR,SCT,0.00,0.0,WeatherDisplay:10.37,2013-06-12 09:40:00,
2013-06-12 04:45:00,74.1,58.9,29.65,ESE,112,2.2,3.5,59,0.00,CLR,SCT,0.00,0.0,WeatherDisplay:10.37,2013-06-12 09:45:00,
2013-06-12 04:50:00,73.9,58.2,29.62,ESE,112,2.4,3.8,58,0.00,CLR,SCT,0.00,0.0,WeatherDisplay:10.37,2013-06-12 09:50:00,
2013-06-12 04:55:00,73.8,58.5,29.62,ESE,112,3.1,3.5,59,0.00,CLR,SCT,0.00,0.0,WeatherDisplay:10.37,2013-06-12 09:55:00,
2013-06-12 05:00:00,73.6,59.3,29.62,NE,45,3.8,4.7,61,0.00,CLR,SCT,0.00,0.0,WeatherDisplay:10.37,2013-06-12 10:00:00,
2013-06-12 05:05:00,73.6,59.3,29.65,ENE,68,3.8,4.6,61,0.00,CLR,SCT,0.00,0.0,WeatherDisplay:10.37,2013-06-12 10:05:00,
2013-06-12 05:11:00,73.6,58.8,29.65,ESE,112,1.6,3.5,60,0.00,CLR,SCT,0.00,0.0,WeatherDisplay:10.37,2013-06-12 10:11:00,
2013-06-12 05:16:00,73.8,59.0,29.65,ESE,112,4.3,5.8,60,0.00,CLR,SCT,0.00,0.0,WeatherDisplay:10.37,2013-06-12 10:16:00,
2013-06-12 05:21:00,73.6,59.3,29.65,ESE,112,2.9,4.3,61,0.00,OVC,SCT,0.00,0.0,WeatherDisplay:10.37,2013-06-12 10:21:00,
2013-06-12 05:26:00,73.6,59.3,29.65,SSE,158,2.9,5.4,61,0.00,OVC,SCT,0.00,0.0,WeatherDisplay:10.37,2013-06-12 10:26:00,
2013-06-12 05:31:00,73.6,59.3,29.65,ESE,112,4.3,6.9,61,0.00,OVC,SCT,0.00,0.0,WeatherDisplay:10.37,2013-06-12 10:31:00,
2013-06-12 05:36:00,73.8,59.5,29.65,SSE,158,3.3,4.6,61,0.00,OVC,SCT,0.00,0.0,WeatherDisplay:10.37,2013-06-12 10:36:00,
2013-06-12 05:41:00,73.8,59.5,29.65,South,180,3.6,5.8,61,0.00,OVC,SCT,0.00,0.0,WeatherDisplay:10.37,2013-06-12 10:41:00,
2013-06-12 05:46:00,73.8,59.5,29.65,ESE,112,3.1,3.5,61,0.00,OVC,SCT,0.00,0.0,WeatherDisplay:10.37,2013-06-12 10:46:00,
2013-06-12 05:51:00,73.8,59.5,29.65,ESE,112,3.3,4.6,61,0.00,BKN,SCT,0.00,0.0,WeatherDisplay:10.37,2013-06-12 10:51:00,
2013-06-12 05:56:00,73.6,59.3,29.65,SE,135,3.3,5.6,61,0.00,BKN,SCT,0.00,0.0,WeatherDisplay:10.37,2013-06-12 10:56:00,
2013-06-12 06:01:00,73.4,59.1,29.65,ESE,112,2.6,6.9,61,0.00,BKN,SCT,0.00,0.0,WeatherDisplay:10.37,2013-06-12 11:01:00,
2013-06-12 06:07:00,73.2,59.4,29.65,SSE,158,2.2,3.5,62,0.00,BKN,SCT,0.00,0.0,WeatherDisplay:10.37,2013-06-12 11:07:00,
2013-06-12 06:12:00,73.0,59.7,29.65,SSE,158,2.4,4.6,63,0.00,BKN,SCT,0.00,0.0,WeatherDisplay:10.37,2013-06-12 11:12:00,
2013-06-12 06:17:00,72.9,59.5,29.65,SSE,158,3.8,4.0,63,0.00,BKN,SCT,0.00,0.0,WeatherDisplay:10.37,2013-06-12 11:17:00,
2013-06-12 06:22:00,72.5,60.1,29.65,South,180,1.4,2.3,65,0.00,BKN,SCT,0.00,0.0,WeatherDisplay:10.37,2013-06-12 11:22:00,
2013-06-12 06:27:00,72.3,59.5,29.65,ESE,112,3.6,6.9,64,0.00,BKN,SCT,0.00,161.3,WeatherDisplay:10.37,2013-06-12 11:27:00,
2013-06-12 06:32:00,72.3,59.9,29.65,SSE,158,2.6,4.9,65,0.00,BKN,SCT,0.00,0.0,WeatherDisplay:10.37,2013-06-12 11:32:00,
2013-06-12 06:37:00,72.1,60.2,29.65,ESE,112,2.9,4.6,66,0.00,BKN,SCT,0.00,0.0,WeatherDisplay:10.37,2013-06-12 11:37:00,
2013-06-12 06:42:00,72.1,60.2,29.65,ESE,112,2.6,5.9,66,0.00,BKN,SCT,0.00,0.0,WeatherDisplay:10.37,2013-06-12 11:42:00,
2013-06-12 06:47:00,72.1,60.2,29.65,SSE,158,2.6,3.5,66,0.00,BKN,SCT,0.00,0.0,WeatherDisplay:10.37,2013-06-12 11:47:00,
2013-06-12 06:52:00,72.1,60.2,29.65,ENE,68,1.6,2.3,66,0.00,BKN,SCT,0.00,0.0,WeatherDisplay:10.37,2013-06-12 11:52:00,
2013-06-12 06:57:00,72.1,60.6,29.65,ESE,112,2.4,4.0,67,0.00,BKN,SCT,0.00,0.0,WeatherDisplay:10.37,2013-06-12 11:57:00,
2013-06-12 07:02:00,72.1,60.6,29.65,SE,135,2.4,3.5,67,0.00,BKN,SCT,0.00,0.0,WeatherDisplay:10.37,2013-06-12 12:02:00,
2013-06-12 07:07:00,72.1,60.6,29.65,ESE,112,2.4,3.6,67,0.00,BKN,SCT,0.00,0.0,WeatherDisplay:10.37,2013-06-12 12:07:00,
2013-06-12 07:12:00,72.3,61.2,29.65,ENE,68,1.4,3.3,68,0.00,BKN,SCT,0.00,0.0,WeatherDisplay:10.37,2013-06-12 12:12:00,
2013-06-12 07:17:00,72.5,61.3,29.65,ENE,68,1.6,2.9,68,0.00,BKN,SCT,0.00,0.0,WeatherDisplay:10.37,2013-06-12 12:17:00,
2013-06-12 07:22:00,72.5,61.3,29.65,NE,45,2.0,4.7,68,0.00,BKN,SCT,0.00,0.0,WeatherDisplay:10.37,2013-06-12 12:22:00,
2013-06-12 07:27:00,72.9,62.1,29.65,ESE,112,1.4,2.3,69,0.00,BKN,SCT,0.00,0.0,WeatherDisplay:10.37,2013-06-12 12:27:00,
2013-06-12 07:33:00,73.0,62.3,29.65,ENE,68,1.4,3.5,69,0.00,BKN,SCT,0.00,0.0,WeatherDisplay:10.37,2013-06-12 12:33:00,
2013-06-12 07:38:00,73.4,62.2,29.68,ENE,68,2.6,3.5,68,0.00,BKN,SCT,0.00,0.0,WeatherDisplay:10.37,2013-06-12 12:38:00,
2013-06-12 07:43:00,73.8,62.5,29.68,ENE,68,0.0,0.9,68,0.00,BKN,SCT,0.00,0.0,WeatherDisplay:10.37,2013-06-12 12:43:00,
2013-06-12 07:48:00,74.1,62.5,29.68,SSE,158,2.0,3.5,67,0.00,BKN,SCT,0.00,0.0,WeatherDisplay:10.37,2013-06-12 12:48:00,
2013-06-12 07:53:00,74.3,62.6,29.65,East,90,2.6,4.6,67,0.00,BKN,SCT,0.00,0.0,WeatherDisplay:10.37,2013-06-12 12:53:00,
2013-06-12 07:58:00,74.7,63.0,29.65,ESE,112,2.2,3.5,67,0.00,BKN,SCT,0.00,0.0,WeatherDisplay:10.37,2013-06-12 12:58:00,
2013-06-12 08:03:00,75.0,63.3,29.65,SSE,158,2.4,2.4,67,0.00,BKN,SCT,0.00,0.0,WeatherDisplay:10.37,2013-06-12 13:03:00,
2013-06-12 08:08:00,75.2,63.1,29.68,South,180,2.0,2.6,66,0.00,BKN,SCT,0.00,0.0,WeatherDisplay:10.37,2013-06-12 13:08:00,
2013-06-12 08:13:00,75.6,63.0,29.68,SSE,158,1.4,3.6,65,0.00,BKN,SCT,0.00,0.0,WeatherDisplay:10.37,2013-06-12 13:13:00,
2013-06-12 08:18:00,75.9,62.9,29.68,SSE,158,3.3,5.8,64,0.00,BKN,SCT,0.00,0.0,WeatherDisplay:10.37,2013-06-12 13:18:00,
2013-06-12 08:23:00,76.3,63.2,29.65,SSE,158,1.4,2.9,64,0.00,OVC,SCT,0.00,0.0,WeatherDisplay:10.37,2013-06-12 13:23:00,
2013-06-12 08:28:00,76.5,62.9,29.65,SSE,158,2.9,3.5,63,0.00,OVC,SCT,0.00,0.0,WeatherDisplay:10.37,2013-06-12 13:28:00,
2013-06-12 08:33:00,76.6,63.1,29.65,ESE,112,2.2,3.5,63,0.00,OVC,SCT,0.00,0.0,WeatherDisplay:10.37,2013-06-12 13:33:00,
2013-06-12 08:38:00,76.8,63.7,29.68,South,180,2.6,3.5,64,0.00,OVC,SCT,0.00,0.0,WeatherDisplay:10.37,2013-06-12 13:38:00,
2013-06-12 08:44:00,77.0,63.0,29.68,ESE,112,2.4,3.5,62,0.00,OVC,SCT,0.00,0.0,WeatherDisplay:10.37,2013-06-12 13:44:00,
2013-06-12 08:49:00,77.4,63.3,29.68,SW,225,2.4,3.6,62,0.00,OVC,SCT,0.00,0.0,WeatherDisplay:10.37,2013-06-12 13:49:00,
2013-06-12 08:54:00,77.2,62.7,29.68,WSW,248,2.9,3.8,61,0.00,OVC,SCT,0.00,0.0,WeatherDisplay:10.37,2013-06-12 13:54:00,
2013-06-12 08:59:00,77.5,63.9,29.68,West,270,2.2,2.6,63,0.00,OVC,SCT,0.00,0.0,WeatherDisplay:10.37,2013-06-12 13:59:00,
2013-06-12 09:04:00,77.5,63.5,29.71,WSW,248,2.4,4.0,62,0.00,OVC,SCT,0.00,0.0,WeatherDisplay:10.37,2013-06-12 14:04:00,
2013-06-12 09:09:00,77.7,63.2,29.71,North,0,2.9,5.8,61,0.00,OVC,SCT,0.00,0.0,WeatherDisplay:10.37,2013-06-12 14:09:00,
2013-06-12 09:14:00,77.5,63.0,29.71,WNW,292,4.0,5.4,61,0.00,OVC,SCT,0.00,0.0,WeatherDisplay:10.37,2013-06-12 14:14:00,
2013-06-12 09:19:00,77.5,62.6,29.71,ESE,112,2.6,4.6,60,0.00,OVC,SCT,0.00,0.0,WeatherDisplay:10.37,2013-06-12 14:19:00,
2013-06-12 09:24:00,77.5,61.6,29.71,NNW,338,2.9,4.6,58,0.00,OVC,SCT,0.00,0.0,WeatherDisplay:10.37,2013-06-12 14:24:00,
2013-06-12 09:29:00,77.9,61.4,29.71,West,270,1.4,3.5,57,0.00,OVC,SCT,0.00,0.0,WeatherDisplay:10.37,2013-06-12 14:29:00,
2013-06-12 09:34:00,78.1,62.1,29.71,NNE,22,1.6,2.3,58,0.00,OVC,SCT,0.00,100.0,WeatherDisplay:10.37,2013-06-12 14:34:00,
2013-06-12 09:39:00,78.1,61.6,29.71,West,270,1.4,2.3,57,0.00,OVC,SCT,0.00,100.0,WeatherDisplay:10.37,2013-06-12 14:39:00,
2013-06-12 09:44:00,78.4,61.9,29.71,WNW,292,0.0,2.0,57,0.00,OVC,SCT,0.00,100.0,WeatherDisplay:10.37,2013-06-12 14:44:00,
2013-06-12 09:49:00,79.0,61.9,29.68,NNW,338,1.6,3.5,56,0.00,OVC,SCT,0.00,100.0,WeatherDisplay:10.37,2013-06-12 14:49:00,
2013-06-12 09:54:00,79.5,60.4,29.68,NNW,338,1.6,3.5,52,0.00,OVC,SCT,0.00,100.0,WeatherDisplay:10.37,2013-06-12 14:54:00,
2013-06-12 10:00:00,80.1,61.9,29.68,North,0,2.6,3.5,54,0.00,OVC,SCT,0.00,100.0,WeatherDisplay:10.37,2013-06-12 15:00:00,
2013-06-12 10:05:00,80.4,60.6,29.68,NNW,338,2.6,4.6,51,0.00,OVC,SCT,0.00,100.0,WeatherDisplay:10.37,2013-06-12 15:05:00,
2013-06-12 10:10:00,80.6,59.7,29.68,West,270,3.6,3.6,49,0.00,OVC,SCT,0.00,200.0,WeatherDisplay:10.37,2013-06-12 15:10:00,
2013-06-12 10:15:00,80.6,60.8,29.68,WSW,248,2.9,4.7,51,0.00,OVC,SCT,0.00,200.0,WeatherDisplay:10.37,2013-06-12 15:15:00,
2013-06-12 10:20:00,81.0,60.0,29.68,NNW,338,2.9,3.5,49,0.00,OVC,SCT,0.00,200.0,WeatherDisplay:10.37,2013-06-12 15:20:00,
2013-06-12 10:25:00,81.1,59.6,29.68,WNW,292,3.3,4.6,48,0.00,OVC,SCT,0.00,200.0,WeatherDisplay:10.37,2013-06-12 15:25:00,
2013-06-12 10:30:00,81.3,59.8,29.68,NNE,22,3.1,4.6,48,0.00,OVC,SCT,0.00,200.0,WeatherDisplay:10.37,2013-06-12 15:30:00,
2013-06-12 10:35:00,81.3,58.6,29.71,WSW,248,4.7,6.9,46,0.00,OVC,SCT,0.00,200.0,WeatherDisplay:10.37,2013-06-12 15:35:00,
2013-06-12 10:40:00,81.3,59.2,29.71,NNW,338,4.5,5.9,47,0.00,OVC,SCT,0.00,200.0,WeatherDisplay:10.37,2013-06-12 15:40:00,
2013-06-12 10:45:00,81.7,60.1,29.71,NNE,22,3.6,4.6,48,0.00,OVC,SCT,0.00,200.0,WeatherDisplay:10.37,2013-06-12 15:45:00,
2013-06-12 10:50:00,82.0,59.2,29.71,SW,225,3.6,8.1,46,0.00,OVC,SCT,0.00,300.0,WeatherDisplay:10.37,2013-06-12 15:50:00,
2013-06-12 10:55:00,82.2,60.0,29.71,NNE,22,3.3,5.8,47,0.00,OVC,SCT,0.00,300.0,WeatherDisplay:10.37,2013-06-12 15:55:00,
2013-06-12 11:00:00,82.4,59.5,29.71,NNE,22,3.3,3.5,46,0.00,OVC,SCT,0.00,300.0,WeatherDisplay:10.37,2013-06-12 16:00:00,
2013-06-12 11:06:00,82.9,61.2,29.71,North,0,2.4,3.5,48,0.00,OVC,SCT,0.00,300.0,WeatherDisplay:10.37,2013-06-12 16:06:00,
2013-06-12 11:11:00,83.1,58.3,29.71,NE,45,3.8,6.9,43,0.00,OVC,SCT,0.00,300.0,WeatherDisplay:10.37,2013-06-12 16:11:00,
2013-06-12 11:16:00,83.7,58.8,29.71,NNW,338,5.6,6.4,43,0.00,OVC,SCT,0.00,300.0,WeatherDisplay:10.37,2013-06-12 16:16:00,
2013-06-12 11:21:00,84.0,59.1,29.71,SE,135,3.1,5.8,43,0.00,OVC,SCT,0.00,300.0,WeatherDisplay:10.37,2013-06-12 16:21:00,
2013-06-12 11:26:00,83.8,58.3,29.71,WNW,292,5.6,8.5,42,0.00,OVC,SCT,0.00,300.0,WeatherDisplay:10.37,2013-06-12 16:26:00,
2013-06-12 11:31:00,84.0,58.5,29.71,NNW,338,5.6,11.5,42,0.00,OVC,SCT,0.00,400.0,WeatherDisplay:10.37,2013-06-12 16:31:00,
2013-06-12 11:36:00,84.4,59.4,29.68,WNW,292,4.5,8.5,43,0.00,OVC,SCT,0.00,400.0,WeatherDisplay:10.37,2013-06-12 16:36:00,
2013-06-12 11:41:00,84.6,58.9,29.68,NNW,338,6.7,7.6,42,0.00,OVC,SCT,0.00,400.0,WeatherDisplay:10.37,2013-06-12 16:41:00,
2013-06-12 11:46:00,84.7,60.4,29.68,NW,315,3.6,5.8,44,0.00,OVC,SCT,0.00,400.0,WeatherDisplay:10.37,2013-06-12 16:46:00,
2013-06-12 11:51:00,84.9,57.9,29.71,WNW,292,3.6,5.8,40,0.00,OVC,SCT,0.00,400.0,WeatherDisplay:10.37,2013-06-12 16:51:00,
2013-06-12 11:56:00,85.6,61.9,29.71,WNW,292,3.8,3.8,45,0.00,OVC,SCT,0.00,400.0,WeatherDisplay:10.37,2013-06-12 16:56:00,
2013-06-12 12:01:00,86.2,59.0,29.71,WNW,292,6.2,9.2,40,0.00,OVC,SCT,0.00,400.0,WeatherDisplay:10.37,2013-06-12 17:01:00,
2013-06-12 12:06:00,86.0,58.2,29.68,WNW,292,6.2,9.2,39,0.00,OVC,SCT,0.00,400.0,WeatherDisplay:10.37,2013-06-12 17:06:00,
2013-06-12 12:12:00,86.0,58.9,29.68,NNW,338,5.6,10.9,40,0.00,OVC,SCT,0.00,400.0,WeatherDisplay:10.37,2013-06-12 17:12:00,
2013-06-12 12:17:00,86.2,58.3,29.68,NW,315,6.0,7.8,39,0.00,OVC,SCT,0.00,400.0,WeatherDisplay:10.37,2013-06-12 17:17:00,
2013-06-12 12:22:00,86.5,58.6,29.71,West,270,3.1,3.5,39,0.00,OVC,SCT,0.00,400.0,WeatherDisplay:10.37,2013-06-12 17:22:00,
2013-06-12 12:27:00,87.4,60.2,29.71,NNE,22,4.3,7.6,40,0.00,OVC,SCT,0.00,400.0,WeatherDisplay:10.37,2013-06-12 17:27:00,
2013-06-12 12:32:00,87.1,59.1,29.71,WNW,292,6.7,10.7,39,0.00,OVC,SCT,0.00,400.0,WeatherDisplay:10.37,2013-06-12 17:32:00,
2013-06-12 12:37:00,87.1,59.1,29.71,North,0,4.3,8.1,39,0.00,OVC,SCT,0.00,400.0,WeatherDisplay:10.37,2013-06-12 17:37:00,
2013-06-12 12:42:00,87.4,59.4,29.71,West,270,5.9,6.9,39,0.00,OVC,SCT,0.00,300.0,WeatherDisplay:10.37,2013-06-12 17:42:00,
2013-06-12 12:47:00,87.6,59.6,29.71,North,0,7.1,9.2,39,0.00,OVC,SCT,0.00,400.0,WeatherDisplay:10.37,2013-06-12 17:47:00,
2013-06-12 12:52:00,87.4,59.4,29.74,NW,315,8.7,12.5,39,0.00,OVC,SCT,0.00,400.0,WeatherDisplay:10.37,2013-06-12 17:52:00,
2013-06-12 12:58:00,87.1,58.4,29.74,NNW,338,7.1,13.8,38,0.00,OVC,SCT,0.00,400.0,WeatherDisplay:10.37,2013-06-12 17:58:00,
2013-06-12 13:03:00,87.3,60.0,29.74,NNW,338,6.4,6.9,40,0.00,OVC,SCT,0.00,400.0,WeatherDisplay:10.37,2013-06-12 18:03:00,
2013-06-12 13:08:00,86.9,59.0,29.74,WNW,292,5.6,12.7,39,0.00,OVC,SCT,0.00,400.0,WeatherDisplay:10.37,2013-06-12 18:08:00,
2013-06-12 13:13:00,87.1,59.1,29.74,WNW,292,5.6,13.8,39,0.00,OVC,SCT,0.00,400.0,WeatherDisplay:10.37,2013-06-12 18:13:00,
2013-06-12 13:18:00,86.4,59.2,29.74,NNW,338,6.2,10.4,40,0.00,OVC,SCT,0.00,400.0,WeatherDisplay:10.37,2013-06-12 18:18:00,
2013-06-12 13:23:00,86.0,58.2,29.74,NNE,22,5.9,9.2,39,0.00,OVC,SCT,0.00,400.0,WeatherDisplay:10.37,2013-06-12 18:23:00,
2013-06-12 13:28:00,86.2,59.0,29.74,North,0,4.5,5.9,40,0.00,OVC,SCT,0.00,400.0,WeatherDisplay:10.37,2013-06-12 18:28:00,
2013-06-12 13:33:00,86.4,59.2,29.74,North,0,5.6,8.1,40,0.00,OVC,SCT,0.00,400.0,WeatherDisplay:10.37,2013-06-12 18:33:00,
2013-06-12 13:39:00,86.2,59.0,29.74,WNW,292,6.7,10.4,40,0.00,OVC,SCT,0.00,400.0,WeatherDisplay:10.37,2013-06-12 18:39:00,
2013-06-12 13:44:00,86.0,58.2,29.74,NNE,22,5.4,8.1,39,0.00,OVC,SCT,0.00,400.0,WeatherDisplay:10.37,2013-06-12 18:44:00,
2013-06-12 13:49:00,85.6,57.8,29.74,NNE,22,7.4,16.1,39,0.00,OVC,SCT,0.00,400.0,WeatherDisplay:10.37,2013-06-12 18:49:00,
2013-06-12 13:54:00,85.3,57.5,29.77,West,270,5.4,15.0,39,0.00,OVC,SCT,0.00,400.0,WeatherDisplay:10.37,2013-06-12 18:54:00,
2013-06-12 13:59:00,85.5,57.7,29.77,ESE,112,4.3,4.9,39,0.00,OVC,SCT,0.00,400.0,WeatherDisplay:10.37,2013-06-12 18:59:00,
2013-06-12 14:04:00,85.3,57.5,29.77,West,270,4.7,9.2,39,0.00,OVC,SCT,0.00,400.0,WeatherDisplay:10.37,2013-06-12 19:04:00,
2013-06-12 14:09:00,85.3,57.5,29.77,NNE,22,7.6,9.2,39,0.00,OVC,SCT,0.00,400.0,WeatherDisplay:10.37,2013-06-12 19:09:00,
2013-06-12 14:14:00,85.3,57.5,29.77,North,0,6.7,13.8,39,0.00,OVC,SCT,0.00,400.0,WeatherDisplay:10.37,2013-06-12 19:14:00,
2013-06-12 14:20:00,85.6,58.5,29.77,NNE,22,6.4,10.4,40,0.00,OVC,SCT,0.00,400.0,WeatherDisplay:10.37,2013-06-12 19:20:00,
2013-06-12 14:25:00,85.6,57.8,29.77,NNW,338,5.6,6.9,39,0.00,OVC,SCT,0.00,400.0,WeatherDisplay:10.37,2013-06-12 19:25:00,
2013-06-12 14:30:00,86.0,57.4,29.77,NNE,22,4.0,9.2,38,0.00,OVC,SCT,0.00,400.0,WeatherDisplay:10.37,2013-06-12 19:30:00,
2013-06-12 14:35:00,85.8,55.8,29.74,WSW,248,7.4,11.5,36,0.00,OVC,SCT,0.00,400.0,WeatherDisplay:10.37,2013-06-12 19:35:00,
2013-06-12 14:40:00,85.8,56.5,29.74,South,180,6.7,9.2,37,0.00,OVC,SCT,0.00,400.0,WeatherDisplay:10.37,2013-06-12 19:40:00,
2013-06-12 14:45:00,85.8,55.0,29.74,ENE,68,6.4,9.8,35,0.00,OVC,SCT,0.00,400.0,WeatherDisplay:10.37,2013-06-12 19:45:00,
2013-06-12 14:50:00,85.8,55.8,29.74,NE,45,4.9,10.4,36,0.00,OVC,SCT,0.00,400.0,WeatherDisplay:10.37,2013-06-12 19:50:00,
2013-06-12 14:55:00,85.8,57.3,29.74,NNW,338,4.0,9.8,38,0.00,OVC,SCT,0.00,400.0,WeatherDisplay:10.37,2013-06-12 19:55:00,
2013-06-12 15:00:00,85.8,54.2,29.74,ENE,68,4.3,6.4,34,0.00,OVC,SCT,0.00,400.0,WeatherDisplay:10.37,2013-06-12 20:00:00,
2013-06-12 15:05:00,85.6,54.0,29.74,WSW,248,4.5,8.1,34,0.00,OVC,SCT,0.00,300.0,WeatherDisplay:10.37,2013-06-12 20:05:00,
2013-06-12 15:10:00,85.5,53.1,29.74,SSW,202,4.9,8.1,33,0.00,OVC,SCT,0.00,300.0,WeatherDisplay:10.37,2013-06-12 20:10:00,
2013-06-12 15:15:00,85.3,53.7,29.74,North,0,6.7,8.7,34,0.00,OVC,SCT,0.00,300.0,WeatherDisplay:10.37,2013-06-12 20:15:00,
2013-06-12 15:20:00,85.5,54.7,29.74,West,270,5.9,6.9,35,0.00,OVC,SCT,0.00,300.0,WeatherDisplay:10.37,2013-06-12 20:20:00,
2013-06-12 15:26:00,85.5,53.1,29.74,North,0,4.9,8.1,33,0.00,OVC,SCT,0.00,300.0,WeatherDisplay:10.37,2013-06-12 20:26:00,
2013-06-12 15:31:00,85.3,52.9,29.74,NNE,22,4.3,9.2,33,0.00,OVC,SCT,0.00,300.0,WeatherDisplay:10.37,2013-06-12 20:31:00,
2013-06-12 15:36:00,85.5,53.1,29.77,NNW,338,6.0,12.3,33,0.00,OVC,SCT,0.00,300.0,WeatherDisplay:10.37,2013-06-12 20:36:00,
2013-06-12 15:41:00,84.9,52.6,29.77,NNE,22,4.3,6.9,33,0.00,OVC,SCT,0.00,300.0,WeatherDisplay:10.37,2013-06-12 20:41:00,
2013-06-12 15:46:00,84.7,51.6,29.77,North,0,4.5,7.6,32,0.00,OVC,SCT,0.00,300.0,WeatherDisplay:10.37,2013-06-12 20:46:00,
2013-06-12 15:51:00,84.7,52.4,29.77,NNW,338,6.4,13.8,33,0.00,OVC,SCT,0.00,300.0,WeatherDisplay:10.37,2013-06-12 20:51:00,
2013-06-12 15:56:00,84.4,51.3,29.77,SSW,202,7.4,10.5,32,0.00,OVC,SCT,0.00,300.0,WeatherDisplay:10.37,2013-06-12 20:56:00,
2013-06-12 16:01:00,84.4,51.3,29.77,NNE,22,7.8,10.4,32,0.00,OVC,SCT,0.00,200.0,WeatherDisplay:10.37,2013-06-12 21:01:00,
2013-06-12 16:06:00,84.9,52.6,29.77,East,90,4.0,6.9,33,0.00,OVC,SCT,0.00,200.0,WeatherDisplay:10.37,2013-06-12 21:06:00,
2013-06-12 16:11:00,84.4,52.1,29.77,North,0,8.1,17.3,33,0.00,OVC,SCT,0.00,200.0,WeatherDisplay:10.37,2013-06-12 21:11:00,
2013-06-12 16:16:00,84.2,51.1,29.77,ENE,68,8.1,10.4,32,0.00,OVC,SCT,0.00,200.0,WeatherDisplay:10.37,2013-06-12 21:16:00,
2013-06-12 16:21:00,84.2,51.1,29.77,North,0,5.9,10.4,32,0.00,OVC,SCT,0.00,200.0,WeatherDisplay:10.37,2013-06-12 21:21:00,
2013-06-12 16:26:00,84.0,50.1,29.77,WNW,292,7.4,10.4,31,0.00,OVC,SCT,0.00,200.0,WeatherDisplay:10.37,2013-06-12 21:26:00,
2013-06-12 16:31:00,83.7,50.7,29.77,WNW,292,6.7,12.7,32,0.00,OVC,SCT,0.00,200.0,WeatherDisplay:10.37,2013-06-12 21:31:00,
2013-06-12 16:36:00,83.5,50.5,29.80,NNW,338,9.2,13.8,32,0.00,OVC,SCT,0.00,200.0,WeatherDisplay:10.37,2013-06-12 21:36:00,
2013-06-12 16:41:00,83.7,50.7,29.80,West,270,7.4,10.0,32,0.00,OVC,SCT,0.00,200.0,WeatherDisplay:10.37,2013-06-12 21:41:00,
2013-06-12 16:46:00,82.9,50.0,29.80,WNW,292,6.2,11.5,32,0.00,OVC,SCT,0.00,200.0,WeatherDisplay:10.37,2013-06-12 21:46:00,
2013-06-12 16:51:00,83.3,50.4,29.83,North,0,4.0,8.1,32,0.00,OVC,SCT,0.00,100.0,WeatherDisplay:10.37,2013-06-12 21:51:00,
2013-06-12 16:57:00,82.9,49.2,29.83,NNW,338,7.8,12.7,31,0.00,OVC,SCT,0.00,100.0,WeatherDisplay:10.37,2013-06-12 21:57:00,
2013-06-12 17:02:00,82.4,48.7,29.83,NNW,338,5.4,12.7,31,0.00,OVC,SCT,0.00,100.0,WeatherDisplay:10.37,2013-06-12 22:02:00,
2013-06-12 17:07:00,82.2,49.4,29.83,NW,315,5.9,9.2,32,0.00,OVC,SCT,0.00,100.0,WeatherDisplay:10.37,2013-06-12 22:07:00,
2013-06-12 17:12:00,82.2,48.6,29.83,NNW,338,6.2,11.5,31,0.00,OVC,SCT,0.00,100.0,WeatherDisplay:10.37,2013-06-12 22:12:00,
2013-06-12 17:17:00,82.2,48.6,29.83,NNE,22,3.8,5.8,31,0.00,OVC,SCT,0.00,100.0,WeatherDisplay:10.37,2013-06-12 22:17:00,
2013-06-12 17:22:00,82.2,48.6,29.83,NW,315,8.1,10.9,31,0.00,OVC,SCT,0.00,100.0,WeatherDisplay:10.37,2013-06-12 22:22:00,
2013-06-12 17:27:00,82.0,48.4,29.83,WNW,292,7.8,12.7,31,0.00,OVC,SCT,0.00,100.0,WeatherDisplay:10.37,2013-06-12 22:27:00,
2013-06-12 17:32:00,82.2,48.6,29.83,NW,315,4.5,6.9,31,0.00,OVC,SCT,0.00,100.0,WeatherDisplay:10.37,2013-06-12 22:32:00,
2013-06-12 17:37:00,82.2,48.6,29.83,NNE,22,6.4,10.4,31,0.00,OVC,SCT,0.00,0.0,WeatherDisplay:10.37,2013-06-12 22:37:00,
2013-06-12 17:42:00,81.9,48.3,29.83,WNW,292,7.8,12.7,31,0.00,OVC,SCT,0.00,0.0,WeatherDisplay:10.37,2013-06-12 22:42:00,
2013-06-12 17:47:00,81.5,47.9,29.83,NNE,22,5.9,9.2,31,0.00,OVC,SCT,0.00,0.0,WeatherDisplay:10.37,2013-06-12 22:47:00,
2013-06-12 17:52:00,81.5,48.8,29.83,WNW,292,4.7,9.7,32,0.00,OVC,SCT,0.00,0.0,WeatherDisplay:10.37,2013-06-12 22:52:00,
2013-06-12 17:57:00,81.1,47.6,29.83,North,0,4.3,9.7,31,0.00,OVC,SCT,0.00,0.0,WeatherDisplay:10.37,2013-06-12 22:57:00,
2013-06-12 18:02:00,81.0,47.5,29.83,NW,315,5.4,7.4,31,0.00,OVC,SCT,0.00,0.0,WeatherDisplay:10.37,2013-06-12 23:02:00,
2013-06-12 18:07:00,81.0,47.5,29.83,East,90,3.6,4.6,31,0.00,OVC,SCT,0.00,0.0,WeatherDisplay:10.37,2013-06-12 23:07:00,
2013-06-12 18:12:00,81.0,48.3,29.83,NW,315,2.4,7.6,32,0.00,OVC,SCT,0.00,0.0,WeatherDisplay:10.37,2013-06-12 23:12:00,
2013-06-12 18:18:00,80.4,47.9,29.83,NW,315,8.5,10.2,32,0.00,OVC,SCT,0.00,0.0,WeatherDisplay:10.37,2013-06-12 23:18:00,
2013-06-12 18:23:00,79.9,47.4,29.83,NE,45,8.5,17.3,32,0.00,OVC,SCT,0.00,0.0,WeatherDisplay:10.37,2013-06-12 23:23:00,
2013-06-12 18:28:00,79.7,47.2,29.83,SSE,158,5.6,9.2,32,0.00,OVC,SCT,0.00,0.0,WeatherDisplay:10.37,2013-06-12 23:28:00,
2013-06-12 18:33:00,79.5,47.1,29.83,NW,315,7.4,17.3,32,0.00,OVC,SCT,0.00,0.0,WeatherDisplay:10.37,2013-06-12 23:33:00,
2013-06-12 18:38:00,79.0,46.6,29.83,NNW,338,6.9,12.7,32,0.00,OVC,SCT,0.00,0.0,WeatherDisplay:10.37,2013-06-12 23:38:00,
2013-06-12 18:43:00,78.6,46.3,29.83,North,0,5.9,12.7,32,0.00,OVC,SCT,0.00,0.0,WeatherDisplay:10.37,2013-06-12 23:43:00,
2013-06-12 18:48:00,78.6,46.3,29.83,WNW,292,6.2,15.2,32,0.00,OVC,SCT,0.00,0.0,WeatherDisplay:10.37,2013-06-12 23:48:00,
2013-06-12 18:53:00,78.1,45.8,29.83,NNE,22,7.8,11.5,32,0.00,OVC,SCT,0.00,0.0,WeatherDisplay:10.37,2013-06-12 23:53:00,
2013-06-12 18:58:00,77.7,45.5,29.83,NNE,22,9.8,13.0,32,0.00,OVC,SCT,0.00,0.0,WeatherDisplay:10.37,2013-06-12 23:58:00,
2013-06-12 19:03:00,77.5,46.2,29.83,NNW,338,7.4,9.2,33,0.00,OVC,SCT,0.00,0.0,WeatherDisplay:10.37,2013-06-13 00:03:00,
2013-06-12 19:08:00,77.2,45.8,29.85,NNW,338,10.0,12.7,33,0.00,OVC,SCT,0.00,0.0,WeatherDisplay:10.37,2013-06-13 00:08:00,
2013-06-12 19:13:00,76.8,46.3,29.85,WSW,248,7.1,10.4,34,0.00,OVC,SCT,0.00,0.0,WeatherDisplay:10.37,2013-06-13 00:13:00,
2013-06-12 19:18:00,76.3,45.8,29.85,WSW,248,5.4,9.2,34,0.00,BKN,SCT,0.00,0.0,WeatherDisplay:10.37,2013-06-13 00:18:00,
2013-06-12 19:23:00,75.2,45.7,29.85,WNW,292,8.7,10.4,35,0.00,BKN,SCT,0.00,0.0,WeatherDisplay:10.37,2013-06-13 00:23:00,
2013-06-12 19:28:00,74.7,45.9,29.85,NNE,22,8.7,11.5,36,0.00,BKN,SCT,0.00,0.0,WeatherDisplay:10.37,2013-06-13 00:28:00,
2013-06-12 19:33:00,74.3,45.6,29.85,North,0,4.3,6.9,36,0.00,BKN,SCT,0.00,0.0,WeatherDisplay:10.37,2013-06-13 00:33:00,
2013-06-12 19:38:00,73.9,44.5,29.88,North,0,6.4,11.5,35,0.00,BKN,SCT,0.00,0.0,WeatherDisplay:10.37,2013-06-13 00:38:00,
2013-06-12 19:44:00,73.8,44.4,29.88,West,270,4.9,6.9,35,0.00,BKN,SCT,0.00,0.0,WeatherDisplay:10.37,2013-06-13 00:44:00,
2013-06-12 19:49:00,73.0,44.5,29.88,NNE,22,3.1,6.9,36,0.00,BKN,SCT,0.00,0.0,WeatherDisplay:10.37,2013-06-13 00:49:00,
2013-06-12 19:54:00,72.7,44.9,29.88,South,180,5.4,8.1,37,0.00,BKN,SCT,0.00,0.0,WeatherDisplay:10.37,2013-06-13 00:54:00,
2013-06-12 19:59:00,72.5,45.4,29.88,NNE,22,6.2,10.4,38,0.00,SCT,,0.00,0.0,WeatherDisplay:10.37,2013-06-13 00:59:00,
2013-06-12 20:04:00,71.8,44.8,29.88,North,0,6.2,10.7,38,0.00,SCT,,0.00,0.0,WeatherDisplay:10.37,2013-06-13 01:04:00,
2013-06-12 20:09:00,71.4,44.5,29.88,NNE,22,4.7,9.2,38,0.00,SCT,,0.00,0.0,WeatherDisplay:10.37,2013-06-13 01:09:00,
2013-06-12 20:14:00,71.1,44.2,29.88,NNE,22,6.4,13.5,38,0.00,SCT,,0.00,0.0,WeatherDisplay:10.37,2013-06-13 01:14:00,
2013-06-12 20:19:00,70.7,43.8,29.88,SW,225,4.7,6.9,38,0.00,SCT,,0.00,0.0,WeatherDisplay:10.37,2013-06-13 01:19:00,
2013-06-12 20:25:00,70.3,44.2,29.88,North,0,4.5,4.9,39,0.00,SCT,,0.00,0.0,WeatherDisplay:10.37,2013-06-13 01:25:00,
2013-06-12 20:30:00,70.2,44.0,29.88,NNE,22,6.0,9.2,39,0.00,FEW,SCT,0.00,0.0,WeatherDisplay:10.37,2013-06-13 01:30:00,
2013-06-12 20:35:00,69.8,43.7,29.88,NNE,22,5.6,6.2,39,0.00,FEW,SCT,0.00,0.0,WeatherDisplay:10.37,2013-06-13 01:35:00,
2013-06-12 20:40:00,69.6,44.2,29.88,North,0,5.6,9.2,40,0.00,FEW,SCT,0.00,0.0,WeatherDisplay:10.37,2013-06-13 01:40:00,
2013-06-12 20:45:00,69.1,45.0,29.88,NW,315,6.7,11.5,42,0.00,FEW,SCT,0.00,0.0,WeatherDisplay:10.37,2013-06-13 01:45:00,
2013-06-12 20:50:00,68.9,44.9,29.91,NNE,22,4.7,5.8,42,0.00,FEW,SCT,0.00,0.0,WeatherDisplay:10.37,2013-06-13 01:50:00,
2013-06-12 20:55:00,68.7,45.3,29.91,NNE,22,5.6,9.8,43,0.00,CLR,SCT,0.00,0.0,WeatherDisplay:10.37,2013-06-13 01:55:00,
2013-06-12 21:00:00,68.5,45.1,29.91,WNW,292,3.1,13.0,43,0.00,CLR,SCT,0.00,0.0,WeatherDisplay:10.37,2013-06-13 02:00:00,
2013-06-12 21:05:00,68.4,45.6,29.91,NW,315,6.9,10.4,44,0.00,CLR,SCT,0.00,0.0,WeatherDisplay:10.37,2013-06-13 02:05:00,
2013-06-12 21:10:00,68.2,45.4,29.91,NNE,22,4.0,5.8,44,0.00,CLR,SCT,0.00,0.0,WeatherDisplay:10.37,2013-06-13 02:10:00,
2013-06-12 21:15:00,67.8,45.7,29.91,NNE,22,3.3,4.6,45,0.00,CLR,SCT,0.00,0.0,WeatherDisplay:10.37,2013-06-13 02:15:00,
2013-06-12 21:20:00,67.6,44.9,29.94,West,270,4.7,8.1,44,0.00,CLR,SCT,0.00,0.0,WeatherDisplay:10.37,2013-06-13 02:20:00,
2013-06-12 21:26:00,67.5,44.8,29.94,NNW,338,4.7,5.8,44,0.00,CLR,SCT,0.00,0.0,WeatherDisplay:10.37,2013-06-13 02:26:00,
2013-06-12 21:31:00,67.1,45.0,29.94,NNE,22,6.0,9.2,45,0.00,CLR,SCT,0.00,0.0,WeatherDisplay:10.37,2013-06-13 02:31:00,
2013-06-12 21:36:00,66.9,44.9,29.94,WNW,292,6.2,10.4,45,0.00,CLR,SCT,0.00,0.0,WeatherDisplay:10.37,2013-06-13 02:36:00,
2013-06-12 21:41:00,66.7,44.7,29.94,NNW,338,4.3,5.8,45,0.00,CLR,SCT,0.00,0.0,WeatherDisplay:10.37,2013-06-13 02:41:00,
2013-06-12 21:46:00,66.6,44.5,29.94,North,0,6.2,11.5,45,0.00,CLR,SCT,0.00,0.0,WeatherDisplay:10.37,2013-06-13 02:46:00,
2013-06-12 21:51:00,66.4,44.4,29.94,NNE,22,3.6,6.9,45,0.00,CLR,SCT,0.00,0.0,WeatherDisplay:10.37,2013-06-13 02:51:00,
2013-06-12 21:56:00,66.2,44.2,29.94,ESE,112,3.1,8.7,45,0.00,CLR,SCT,0.00,0.0,WeatherDisplay:10.37,2013-06-13 02:56:00,
2013-06-12 22:01:00,66.2,44.2,29.94,North,0,4.5,5.8,45,0.00,CLR,SCT,0.00,0.0,WeatherDisplay:10.37,2013-06-13 03:01:00,
2013-06-12 22:06:00,66.0,44.6,29.91,NNE,22,3.3,4.6,46,0.00,CLR,SCT,0.00,0.0,WeatherDisplay:10.37,2013-06-13 03:06:00,
2013-06-12 22:11:00,65.8,44.5,29.91,NNE,22,6.0,6.9,46,0.00,CLR,SCT,0.00,0.0,WeatherDisplay:10.37,2013-06-13 03:11:00,
2013-06-12 22:16:00,65.7,44.3,29.91,NNW,338,2.2,5.8,46,0.00,CLR,SCT,0.00,0.0,WeatherDisplay:10.37,2013-06-13 03:16:00,
2013-06-12 22:21:00,65.5,44.7,29.94,NNE,22,4.3,8.5,47,0.00,CLR,SCT,0.00,0.0,WeatherDisplay:10.37,2013-06-13 03:21:00,
2013-06-12 22:26:00,65.3,44.0,29.94,North,0,6.4,9.2,46,0.00,CLR,SCT,0.00,0.0,WeatherDisplay:10.37,2013-06-13 03:26:00,
2013-06-12 22:31:00,65.3,44.5,29.94,NNE,22,4.9,6.9,47,0.00,CLR,SCT,0.00,0.0,WeatherDisplay:10.37,2013-06-13 03:31:00,
2013-06-12 22:36:00,65.1,44.4,29.94,NNW,338,3.1,4.6,47,0.00,CLR,SCT,0.00,0.0,WeatherDisplay:10.37,2013-06-13 03:36:00,
2013-06-12 22:41:00,64.9,44.2,29.94,NNW,338,4.7,8.1,47,0.00,CLR,SCT,0.00,0.0,WeatherDisplay:10.37,2013-06-13 03:41:00,
2013-06-12 22:46:00,64.8,44.1,29.94,NNW,338,4.3,4.3,47,0.00,CLR,SCT,0.00,0.0,WeatherDisplay:10.37,2013-06-13 03:46:00,
2013-06-12 22:51:00,64.6,44.4,29.97,South,180,3.6,5.8,48,0.00,CLR,SCT,0.00,0.0,WeatherDisplay:10.37,2013-06-13 03:51:00,
2013-06-12 22:56:00,64.4,44.3,29.97,North,0,3.6,6.9,48,0.00,CLR,SCT,0.00,0.0,WeatherDisplay:10.37,2013-06-13 03:56:00,
2013-06-12 23:01:00,64.4,44.3,29.97,West,270,4.5,5.8,48,0.00,CLR,SCT,0.00,0.0,WeatherDisplay:10.37,2013-06-13 04:01:00,
2013-06-12 23:07:00,64.2,44.1,29.97,North,0,4.0,8.1,48,0.00,CLR,SCT,0.00,0.0,WeatherDisplay:10.37,2013-06-13 04:07:00,
2013-06-12 23:12:00,64.0,44.5,29.97,NNW,338,4.5,10.4,49,0.00,CLR,SCT,0.00,0.0,WeatherDisplay:10.37,2013-06-13 04:12:00,
2013-06-12 23:17:00,63.9,44.3,29.97,North,0,2.2,5.9,49,0.00,CLR,SCT,0.00,0.0,WeatherDisplay:10.37,2013-06-13 04:17:00,
2013-06-12 23:22:00,63.7,44.7,29.97,North,0,2.6,5.9,50,0.00,CLR,SCT,0.00,0.0,WeatherDisplay:10.37,2013-06-13 04:22:00,
2013-06-12 23:27:00,63.5,44.5,29.97,East,90,4.3,5.8,50,0.00,CLR,SCT,0.00,0.0,WeatherDisplay:10.37,2013-06-13 04:27:00,
2013-06-12 23:32:00,63.3,44.4,29.97,NNE,22,4.0,6.9,50,0.00,CLR,SCT,0.00,0.0,WeatherDisplay:10.37,2013-06-13 04:32:00,
2013-06-12 23:37:00,63.1,44.2,29.97,SSW,202,3.3,3.5,50,0.00,CLR,SCT,0.00,0.0,WeatherDisplay:10.37,2013-06-13 04:37:00,
2013-06-12 23:42:00,63.0,44.0,29.97,NNW,338,3.1,3.5,50,0.00,CLR,SCT,0.00,0.0,WeatherDisplay:10.37,2013-06-13 04:42:00,
2013-06-12 23:47:00,63.0,44.0,29.97,NNW,338,2.9,7.1,50,0.00,CLR,SCT,0.00,0.0,WeatherDisplay:10.37,2013-06-13 04:47:00,
2013-06-12 23:52:00,62.8,44.4,29.97,East,90,2.0,4.6,51,0.00,CLR,SCT,0.00,0.0,WeatherDisplay:10.37,2013-06-13 04:52:00,
2013-06-12 23:57:00,62.6,44.2,29.97,North,0,2.4,4.0,51,0.00,CLR,SCT,0.00,0.0,WeatherDisplay:10.37,2013-06-13 04:57:00,